TimeCDT,TemperatureF,Dew PointF,Humidity,Sea Level PressureIn,VisibilityMPH,Wind Direction,Wind SpeedMPH,Gust SpeedMPH,PrecipitationIn,Events,Conditions,WindDirDegrees,DateUTC
12:33 AM,75.2,69.8,83,29.90,9.0,South,3.5,-,N/A,Thunderstorm,Overcast,180,2013-07-08 05:33:00
12:42 AM,75.2,71.6,89,29.91,1.8,WSW,13.8,19.6,0.18,Rain-Thunderstorm,Heavy Rain,240,2013-07-08 05:42:00
12:54 AM,73.9,71.1,91,29.90,2.5,SSW,4.6,-,0.30,Rain-Thunderstorm,Light Thunderstorms and Rain,210,2013-07-08 05:54:00
1:01 AM,73.4,71.6,94,29.91,5.0,Calm,Calm,-,0.01,Rain-Thunderstorm,Light Rain,0,2013-07-08 06:01:00
1:23 AM,71.6,71.6,100,29.90,2.0,Calm,Calm,-,0.09,Rain-Thunderstorm,Heavy Rain,0,2013-07-08 06:23:00
1:32 AM,73.4,71.6,94,29.89,5.0,ENE,4.6,-,0.11,Rain-Thunderstorm,Thunderstorms and Rain,70,2013-07-08 06:32:00
1:54 AM,72.0,71.1,97,29.88,6.0,NW,8.1,-,0.11,Thunderstorm,Overcast,320,2013-07-08 06:54:00
2:06 AM,71.6,69.8,94,29.89,6.0,North,11.5,-,N/A,Thunderstorm,Overcast,10,2013-07-08 07:06:00
2:33 AM,69.8,68.0,94,29.91,7.0,NW,8.1,17.3,0.01,Rain-Thunderstorm,Light Rain,310,2013-07-08 07:33:00
2:54 AM,68.0,66.0,93,29.88,2.5,NNW,4.6,-,0.19,Rain-Thunderstorm,Heavy Thunderstorms and Rain,340,2013-07-08 07:54:00
2:59 AM,68.0,66.2,94,29.90,1.8,North,10.4,-,0.06,Rain-Thunderstorm,Heavy Thunderstorms and Rain,10,2013-07-08 07:59:00
3:08 AM,68.0,66.2,94,29.92,1.8,North,11.5,-,0.24,Rain-Thunderstorm,Heavy Thunderstorms and Rain,350,2013-07-08 08:08:00
3:18 AM,66.2,66.2,100,29.91,0.5,North,12.7,21.9,0.80,Fog-Rain-Thunderstorm,Heavy Thunderstorms and Rain,10,2013-07-08 08:18:00
3:30 AM,66.2,66.2,100,29.90,1.5,East,6.9,-,1.02,Rain-Thunderstorm,Heavy Thunderstorms and Rain,80,2013-07-08 08:30:00
3:37 AM,66.2,66.2,100,29.90,2.5,ENE,8.1,-,1.09,Rain-Thunderstorm,Heavy Thunderstorms and Rain,70,2013-07-08 08:37:00
3:50 AM,66.2,66.2,100,29.90,1.5,NNE,4.6,-,1.29,Rain-Thunderstorm,Heavy Thunderstorms and Rain,30,2013-07-08 08:50:00
3:54 AM,68.0,66.9,96,29.88,1.5,East,6.9,-,1.37,Rain-Thunderstorm,Heavy Thunderstorms and Rain,80,2013-07-08 08:54:00
4:04 AM,68.0,66.2,94,29.89,3.0,SE,9.2,-,0.06,Rain-Thunderstorm,Rain,130,2013-07-08 09:04:00
4:13 AM,68.0,66.2,94,29.90,4.0,SSE,9.2,-,0.08,Rain,Light Rain,160,2013-07-08 09:13:00
4:54 AM,68.0,66.0,93,29.88,10.0,Calm,Calm,-,0.15,,Overcast,0,2013-07-08 09:54:00
5:54 AM,68.0,66.9,96,29.89,6.0,Calm,Calm,-,N/A,,Mostly Cloudy,0,2013-07-08 10:54:00
6:54 AM,68.0,66.9,96,29.88,10.0,Calm,Calm,-,N/A,,Clear,0,2013-07-08 11:54:00
7:26 AM,69.8,66.2,88,29.90,10.0,ESE,4.6,-,N/A,,Partly Cloudy,110,2013-07-08 12:26:00
7:38 AM,69.8,66.2,88,29.91,10.0,ESE,4.6,-,N/A,,Mostly Cloudy,110,2013-07-08 12:38:00
7:54 AM,69.1,66.9,93,29.91,10.0,East,5.8,-,N/A,,Overcast,80,2013-07-08 12:54:00
8:54 AM,70.0,68.0,93,29.94,9.0,East,5.8,-,N/A,,Overcast,90,2013-07-08 13:54:00
9:03 AM,69.8,68.0,94,29.95,8.0,East,6.9,-,N/A,,Overcast,100,2013-07-08 14:03:00
9:43 AM,69.8,68.0,94,29.96,2.0,ESE,5.8,-,0.00,Rain,Light Rain,120,2013-07-08 14:43:00
9:54 AM,70.0,68.0,93,29.95,4.0,SE,3.5,-,0.00,Rain,Light Rain,130,2013-07-08 14:54:00
10:03 AM,71.6,69.8,94,29.96,10.0,SE,3.5,-,0.00,,Overcast,140,2013-07-08 15:03:00
10:54 AM,73.9,68.0,82,29.95,10.0,Calm,Calm,-,0.00,,Overcast,0,2013-07-08 15:54:00
11:29 AM,75.2,68.0,78,29.96,10.0,Calm,Calm,-,N/A,,Mostly Cloudy,0,2013-07-08 16:29:00
11:54 AM,77.0,68.0,74,29.94,10.0,Variable,3.5,-,N/A,,Mostly Cloudy,0,2013-07-08 16:54:00
12:20 PM,78.8,66.2,65,29.95,10.0,West,6.9,-,N/A,,Scattered Clouds,280,2013-07-08 17:20:00
12:31 PM,78.8,68.0,69,29.95,10.0,WNW,5.8,-,N/A,,Mostly Cloudy,300,2013-07-08 17:31:00
12:54 PM,81.0,68.0,65,29.94,10.0,NW,6.9,-,N/A,,Mostly Cloudy,310,2013-07-08 17:54:00
1:26 PM,80.6,66.2,61,29.96,10.0,Variable,6.9,-,N/A,,Mostly Cloudy,0,2013-07-08 18:26:00
1:54 PM,80.1,66.9,64,29.95,10.0,North,5.8,-,N/A,,Mostly Cloudy,10,2013-07-08 18:54:00
2:54 PM,82.9,66.0,56,29.95,10.0,Variable,5.8,-,N/A,,Partly Cloudy,0,2013-07-08 19:54:00
3:54 PM,84.0,68.0,58,29.94,10.0,ENE,6.9,-,N/A,,Mostly Cloudy,70,2013-07-08 20:54:00
4:54 PM,84.9,66.9,55,29.94,10.0,North,5.8,-,N/A,,Mostly Cloudy,10,2013-07-08 21:54:00
5:54 PM,84.0,66.0,55,29.94,10.0,Calm,Calm,-,N/A,,Mostly Cloudy,0,2013-07-08 22:54:00
6:54 PM,82.0,66.9,60,29.95,10.0,Calm,Calm,-,N/A,,Clear,0,2013-07-08 23:54:00
7:54 PM,82.0,66.9,60,29.95,10.0,Calm,Calm,-,N/A,,Clear,0,2013-07-09 00:54:00
8:54 PM,79.0,69.1,72,29.97,10.0,Calm,Calm,-,N/A,,Scattered Clouds,0,2013-07-09 01:54:00
9:54 PM,75.9,70.0,82,29.97,10.0,Calm,Calm,-,N/A,,Partly Cloudy,0,2013-07-09 02:54:00
10:54 PM,73.0,69.1,87,29.98,10.0,ESE,3.5,-,N/A,,Clear,110,2013-07-09 03:54:00
11:54 PM,73.0,68.0,84,29.98,10.0,SSE,3.5,-,N/A,,Clear,160,2013-07-09 04:54:00